Location: *
(45.1961°N, 1.9694°E)
Time: 18:14:13
(UTC+00:00)

Okean 3 - Pass Details

Date: 25 August 2019
Orbit: 578 x 600 km, 82.5° (Epoch: 14 October)

Event Time Altitude Azimuth Distance (km) Brightness Sun altitude
Rises 19:25:33 0° 353° (N) 2,808 7.4 -7.9°
Reaches altitude 10° 19:27:45 10° 355° (N) 1,906 6.5 -8.3°
Maximum altitude 19:31:57 71° 80° (E) 618 3.4 -8.9°
Drops below altitude 10° 19:36:08 10° 165° (SSE) 1,901 5.7 -9.6°
Enters shadow 19:38:11 - 168° (SSE) 2,736 6.5 -9.9°
